• In Hungary
  • List of Countries
  • For 7 days
  • Water Temperature
  • Satellite Maps
  • Weather Map
  • News
  • Weather Widgets
  • user-avatar
    Login

    Hourly Weather Mingora

    Today, 22 January, Monday

    Time Temperature Precipitation Wind Pressure Humidity
    00:00 +10°C° 0 mm 4 mps 675 mmHg 17%
    01:00 +9°C° 0 mm 3 mps 675 mmHg 17%
    02:00 +9°C° 0 mm 3 mps 674 mmHg 17%
    03:00 +8°C° 0 mm 4 mps 674 mmHg 16%
    04:00 +7°C° 0 mm 4 mps 674 mmHg 16%
    05:00 +7°C° 0 mm 4 mps 674 mmHg 16%
    06:00 +7°C° 0 mm 4 mps 674 mmHg 16%
    07:00 +7°C° 0 mm 4 mps 674 mmHg 16%
    08:00 +7°C° 0 mm 4 mps 674 mmHg 16%
    09:00 +11°C° 0 mm 3 mps 674 mmHg 14%
    10:00 +15°C° 0 mm 2 mps 674 mmHg 12%
    11:00 +19°C° 0 mm 1 mps 674 mmHg 10%
    12:00 +20°C° 0 mm 1 mps 674 mmHg 10%
    13:00 +19°C° 0 mm 2 mps 674 mmHg 10%
    14:00 +20°C° 0 mm 2 mps 673 mmHg 11%
    15:00 +18°C° 0 mm 2 mps 673 mmHg 14%
    16:00 +18°C° 0 mm 1 mps 673 mmHg 18%
    17:00 +15°C° 0 mm 1 mps 672 mmHg 21%
    18:00 +14°C° 0 mm 2 mps 672 mmHg 22%
    19:00 +12°C° 0 mm 2 mps 673 mmHg 22%
    20:00 +10°C° 0 mm 2 mps 673 mmHg 22%
    21:00 +9°C° 0 mm 3 mps 673 mmHg 22%
    22:00 +9°C° 0 mm 3 mps 673 mmHg 21%
    23:00 +8°C° 0 mm 3 mps 673 mmHg 21%

    Tomorrow, 23 January, Tuesday

    Time Temperature Precipitation Wind Pressure Humidity
    00:00 +8°C° 0 mm 3 mps 673 mmHg 20%
    01:00 +8°C° 0 mm 3 mps 673 mmHg 19%
    02:00 +7°C° 0 mm 3 mps 673 mmHg 19%
    03:00 +7°C° 0 mm 3 mps 673 mmHg 18%
    04:00 +7°C° 0 mm 3 mps 673 mmHg 18%
    05:00 +5°C° 0 mm 3 mps 673 mmHg 18%
    06:00 +5°C° 0 mm 3 mps 673 mmHg 18%
    07:00 +7°C° 0 mm 3 mps 673 mmHg 18%
    08:00 +7°C° 0 mm 3 mps 674 mmHg 18%
    09:00 +9°C° 0 mm 2 mps 674 mmHg 16%
    10:00 +13°C° 0 mm 2 mps 674 mmHg 14%
    11:00 +15°C° 0 mm 1 mps 675 mmHg 11%
    12:00 +16°C° 0 mm 1 mps 674 mmHg 12%
    13:00 +16°C° 0 mm 2 mps 674 mmHg 12%
    14:00 +17°C° 0 mm 2 mps 673 mmHg 12%
    15:00 +16°C° 0 mm 2 mps 673 mmHg 15%
    16:00 +15°C° 0 mm 1 mps 673 mmHg 18%
    17:00 +13°C° 0 mm 1 mps 673 mmHg 20%
    18:00 +12°C° 0 mm 2 mps 673 mmHg 21%
    19:00 +10°C° 0 mm 2 mps 673 mmHg 21%
    20:00 +8°C° 0 mm 3 mps 674 mmHg 22%
    21:00 +8°C° 0 mm 3 mps 674 mmHg 22%
    22:00 +7°C° 0 mm 3 mps 674 mmHg 22%
    23:00 +7°C° 0 mm 3 mps 674 mmHg 22%

    Day after tomorrow, 24 January, Wednesday

    Time Temperature Precipitation Wind Pressure Humidity
    00:00 +5°C° 0 mm 3 mps 674 mmHg 22%
    01:00 +5°C° 0 mm 3 mps 673 mmHg 22%
    02:00 +5°C° 0 mm 3 mps 673 mmHg 21%
    03:00 +5°C° 0 mm 3 mps 673 mmHg 21%
    04:00 +4°C° 0 mm 3 mps 673 mmHg 21%
    05:00 +4°C° 0 mm 3 mps 672 mmHg 20%
    06:00 +4°C° 0 mm 3 mps 673 mmHg 20%
    07:00 +4°C° 0 mm 3 mps 673 mmHg 20%
    08:00 +5°C° 0 mm 3 mps 673 mmHg 20%
    09:00 +8°C° 0 mm 2 mps 674 mmHg 17%
    10:00 +12°C° 0 mm 2 mps 674 mmHg 15%
    11:00 +15°C° 0 mm 1 mps 674 mmHg 12%
    12:00 +15°C° 0 mm 1 mps 674 mmHg 12%
    13:00 +16°C° 0 mm 2 mps 674 mmHg 12%
    14:00 +16°C° 0 mm 2 mps 673 mmHg 12%
    15:00 +15°C° 0 mm 2 mps 673 mmHg 15%
    16:00 +14°C° 0 mm 1 mps 673 mmHg 18%
    17:00 +13°C° 0 mm 1 mps 673 mmHg 21%
    18:00 +12°C° 0 mm 1 mps 673 mmHg 22%
    19:00 +9°C° 0 mm 2 mps 674 mmHg 23%
    20:00 +8°C° 0 mm 2 mps 674 mmHg 23%
    21:00 +7°C° 0 mm 2 mps 674 mmHg 23%
    22:00 +7°C° 0 mm 3 mps 674 mmHg 23%
    23:00 +7°C° 0 mm 3 mps 674 mmHg 23%

    25 January, Thursday

    Time Temperature Precipitation Wind Pressure Humidity
    00:00 +5°C° 0 mm 3 mps 674 mmHg 22%
    01:00 +5°C° 0 mm 3 mps 674 mmHg 22%
    02:00 +5°C° 0 mm 3 mps 674 mmHg 21%
    03:00 +4°C° 0 mm 3 mps 674 mmHg 21%
    04:00 +4°C° 0 mm 3 mps 673 mmHg 20%
    05:00 +4°C° 0 mm 3 mps 673 mmHg 20%
    06:00 +4°C° 0 mm 3 mps 673 mmHg 20%
    07:00 +4°C° 0 mm 3 mps 674 mmHg 19%
    08:00 +4°C° 0 mm 3 mps 674 mmHg 19%
    09:00 +8°C° 0 mm 2 mps 674 mmHg 17%
    10:00 +12°C° 0 mm 2 mps 674 mmHg 14%
    11:00 +14°C° 0 mm 1 mps 675 mmHg 12%
    12:00 +15°C° 0 mm 1 mps 674 mmHg 12%
    13:00 +15°C° 0 mm 1 mps 673 mmHg 12%
    14:00 +16°C° 0 mm 2 mps 673 mmHg 12%
    15:00 +15°C° 0 mm 2 mps 673 mmHg 15%
    16:00 +14°C° 0 mm 1 mps 673 mmHg 18%
    17:00 +13°C° 0 mm 1 mps 673 mmHg 20%
    18:00 +10°C° 0 mm 2 mps 673 mmHg 21%
    19:00 +9°C° 0 mm 2 mps 674 mmHg 21%
    20:00 +7°C° 0 mm 3 mps 674 mmHg 22%
    21:00 +7°C° 0 mm 3 mps 674 mmHg 22%
    22:00 +5°C° 0 mm 3 mps 675 mmHg 23%
    23:00 +5°C° 0 mm 3 mps 675 mmHg 23%

    26 January, Friday

    Time Temperature Precipitation Wind Pressure Humidity
    00:00 +5°C° 0 mm 3 mps 675 mmHg 23%
    01:00 +4°C° 0 mm 3 mps 675 mmHg 23%
    02:00 +4°C° 0 mm 3 mps 675 mmHg 23%
    03:00 +4°C° 0 mm 3 mps 675 mmHg 23%
    04:00 +4°C° 0 mm 3 mps 675 mmHg 23%
    05:00 +3°C° 0 mm 3 mps 675 mmHg 22%
    06:00 +4°C° 0 mm 3 mps 675 mmHg 22%
    07:00 +4°C° 0 mm 3 mps 676 mmHg 21%
    08:00 +4°C° 0 mm 3 mps 676 mmHg 21%
    09:00 +7°C° 0 mm 3 mps 676 mmHg 19%
    10:00 +10°C° 0 mm 2 mps 676 mmHg 16%
    11:00 +14°C° 0 mm 1 mps 676 mmHg 13%
    12:00 +14°C° 0 mm 1 mps 675 mmHg 13%
    13:00 +15°C° 0 mm 1 mps 675 mmHg 13%
    14:00 +15°C° 0 mm 2 mps 674 mmHg 13%
    15:00 +14°C° 0 mm 1 mps 674 mmHg 15%
    16:00 +14°C° 0 mm 1 mps 674 mmHg 18%
    17:00 +13°C° 0 mm 1 mps 674 mmHg 21%
    18:00 +10°C° 0 mm 2 mps 674 mmHg 21%
    19:00 +9°C° 0 mm 2 mps 675 mmHg 21%
    20:00 +7°C° 0 mm 2 mps 675 mmHg 22%
    21:00 +7°C° 0 mm 3 mps 675 mmHg 21%
    22:00 +5°C° 0 mm 3 mps 675 mmHg 21%
    23:00 +5°C° 0 mm 3 mps 675 mmHg 21%

    27 January, Saturday

    Time Temperature Precipitation Wind Pressure Humidity
    00:00 +4°C° 0 mm 3 mps 675 mmHg 20%
    01:00 +4°C° 0 mm 3 mps 674 mmHg 20%
    02:00 +4°C° 0 mm 3 mps 674 mmHg 19%
    03:00 +4°C° 0 mm 3 mps 674 mmHg 19%
    04:00 +3°C° 0 mm 3 mps 674 mmHg 19%
    05:00 +3°C° 0 mm 3 mps 674 mmHg 18%
    06:00 +3°C° 0 mm 3 mps 674 mmHg 18%
    07:00 +3°C° 0 mm 3 mps 674 mmHg 18%
    08:00 +4°C° 0 mm 3 mps 675 mmHg 18%
    09:00 +7°C° 0 mm 2 mps 675 mmHg 16%
    10:00 +11°C° 0 mm 1 mps 675 mmHg 13%
    11:00 +13°C° 0 mm 0 mps 675 mmHg 11%
    12:00 +14°C° 0 mm 1 mps 675 mmHg 11%
    13:00 +15°C° 0 mm 2 mps 674 mmHg 11%
    14:00 +15°C° 0 mm 2 mps 673 mmHg 11%
    15:00 +14°C° 0 mm 2 mps 673 mmHg 14%
    16:00 +13°C° 0 mm 1 mps 673 mmHg 17%
    17:00 +12°C° 0 mm 1 mps 673 mmHg 20%
    18:00 +10°C° 0 mm 2 mps 674 mmHg 20%
    19:00 +8°C° 0 mm 2 mps 674 mmHg 20%
    20:00 +7°C° 0 mm 2 mps 675 mmHg 21%
    21:00 +7°C° 0 mm 3 mps 675 mmHg 20%
    22:00 +5°C° 0 mm 3 mps 675 mmHg 19%
    23:00 +5°C° 0 mm 3 mps 675 mmHg 19%
    Show more